| time (UTC) | temp F | wind direction | speed MPH | gust MPH | rain 1hr in | rain 24hr in | rain mn in | humidity % | barometer mb |
| 20260508060004 | 52 | 185 | 0.0 | 0.0 | 0.00 | 0.03 | 0.00 | 100 | 1005.8 |
| 20260508054504 | 52 | 185 | 0.0 | 2.0 | 0.00 | 0.03 | 0.00 | 100 | 1005.6 |
| 20260508053005 | 52 | 185 | 1.0 | 2.0 | 0.00 | 0.03 | 0.00 | 100 | 1005.6 |
| 20260508051504 | 52 | 225 | 0.0 | 0.0 | 0.00 | 0.03 | 0.00 | 100 | 1005.6 |
| 20260508050004 | 52 | 225 | 1.0 | 3.0 | 0.00 | 0.03 | 0.00 | 100 | 1005.6 |
| 20260508044504 | 52 | 306 | 0.0 | 0.0 | 0.00 | 0.03 | 0.00 | 100 | 1005.5 |
| 20260508043004 | 52 | 306 | 0.0 | 0.0 | 0.00 | 0.03 | 0.00 | 100 | 1005.6 |
| 20260508041505 | 52 | 306 | 0.0 | 0.0 | 0.00 | 0.03 | 0.00 | 100 | 1005.6 |
| 20260508040004 | 52 | 306 | 0.0 | 0.0 | 0.00 | 0.03 | 0.00 | 100 | 1005.8 |
| 20260508034504 | 52 | 306 | 1.0 | 3.0 | 0.00 | 0.03 | 0.00 | 100 | 1006.1 |
| 20260508033004 | 52 | 159 | 1.0 | 3.0 | 0.00 | 0.03 | 0.00 | 100 | 1006.0 |
| 20260508031504 | 51 | 240 | 0.0 | 0.0 | 0.00 | 0.03 | 0.00 | 100 | 1006.3 |
| 20260508030005 | 51 | 240 | 0.0 | 0.0 | 0.00 | 0.03 | 0.00 | 100 | 1006.4 |
| 20260508024504 | 52 | 306 | 1.0 | 3.0 | 0.00 | 0.03 | 0.00 | 100 | 1006.6 |
| 20260508023004 | 52 | 257 | 0.0 | 0.0 | 0.00 | 0.03 | 0.00 | 100 | 1006.6 |
| 20260508021504 | 52 | 257 | 0.0 | 0.0 | 0.00 | 0.03 | 0.00 | 100 | 1006.5 |
| 20260508020004 | 52 | 257 | 0.0 | 0.0 | 0.00 | 0.03 | 0.00 | 100 | 1006.6 |
| 20260508014504 | 52 | 257 | 0.0 | 0.0 | 0.00 | 0.03 | 0.00 | 100 | 1006.8 |
| 20260508013005 | 52 | 257 | 0.0 | 0.0 | 0.00 | 0.03 | 0.00 | 100 | 1006.8 |
| 20260508011504 | 52 | 257 | 0.0 | 0.0 | 0.00 | 0.03 | 0.00 | 100 | 1006.9 |
| 20260508010004 | 52 | 257 | 0.0 | 0.0 | 0.00 | 0.03 | 0.00 | 100 | 1007.2 |
| 20260508004504 | 52 | 263 | 0.0 | 0.0 | 0.00 | 0.03 | 0.00 | 100 | 1007.3 |
| 20260508003005 | 53 | 263 | 0.0 | 3.0 | 0.00 | 0.03 | 0.00 | 100 | 1007.5 |
| 20260508001504 | 53 | 266 | 1.0 | 3.0 | 0.00 | 0.03 | 0.00 | 100 | 1007.5 |
| 20260508000004 | 53 | 175 | 0.0 | 0.0 | 0.00 | 0.03 | 0.00 | 100 | 1007.5 |
| 20260507234504 | 53 | 174 | 1.0 | 3.0 | 0.00 | 0.03 | 0.00 | 100 | 1007.7 |
| 20260507233004 | 53 | 247 | 0.0 | 0.0 | 0.00 | 0.03 | 0.00 | 100 | 1007.8 |
| 20260507231504 | 53 | 248 | 0.0 | 0.0 | 0.00 | 0.03 | 0.00 | 100 | 1007.9 |
| 20260507230004 | 53 | 248 | 1.0 | 3.0 | 0.00 | 0.03 | 0.00 | 100 | 1008.1 |
| 20260507224504 | 53 | 264 | 0.0 | 3.0 | 0.00 | 0.03 | 0.00 | 100 | 1008.1 |
| 20260507223004 | 53 | 195 | 0.0 | 3.0 | 0.00 | 0.03 | 0.00 | 99 | 1008.1 |
| 20260507221504 | 53 | 183 | 2.0 | 6.0 | 0.00 | 0.03 | 0.00 | 98 | 1008.1 |
| 20260507220004 | 53 | 165 | 5.0 | 6.0 | 0.00 | 0.03 | 0.00 | 97 | 1008.1 |
| 20260507214505 | 53 | 171 | 0.0 | 2.0 | 0.00 | 0.03 | 0.03 | 96 | 1008.2 |
| 20260507213005 | 53 | 194 | 0.0 | 2.0 | 0.00 | 0.03 | 0.03 | 95 | 1008.2 |
| 20260507211504 | 53 | 194 | 0.0 | 3.0 | 0.00 | 0.03 | 0.03 | 95 | 1008.4 |
| 20260507210005 | 53 | 194 | 1.0 | 5.0 | 0.00 | 0.03 | 0.03 | 94 | 1008.3 |
| 20260507204505 | 54 | 203 | 1.0 | 3.0 | 0.00 | 0.03 | 0.03 | 92 | 1008.2 |
| 20260507203005 | 53 | 203 | 0.0 | 0.0 | 0.00 | 0.03 | 0.03 | 91 | 1007.9 |
| 20260507201504 | 54 | 203 | 0.0 | 3.0 | 0.00 | 0.03 | 0.03 | 90 | 1008.0 |
| 20260507200004 | 54 | 203 | 2.0 | 3.0 | 0.00 | 0.03 | 0.03 | 90 | 1007.8 |
| 20260507194504 | 54 | 205 | 0.0 | 3.0 | 0.00 | 0.03 | 0.03 | 89 | 1007.6 |
| 20260507193005 | 55 | 205 | 0.0 | 2.0 | 0.00 | 0.03 | 0.03 | 88 | 1007.6 |
| 20260507191504 | 55 | 205 | 1.0 | 5.0 | 0.00 | 0.03 | 0.03 | 88 | 1007.4 |
| 20260507190005 | 56 | 193 | 3.0 | 5.0 | 0.00 | 0.03 | 0.03 | 88 | 1007.3 |
| 20260507184504 | 56 | 193 | 3.0 | 6.0 | 0.00 | 0.03 | 0.03 | 89 | 1007.3 |
| 20260507183005 | 56 | 205 | 0.0 | 0.0 | 0.01 | 0.03 | 0.03 | 89 | 1007.2 |
| 20260507181504 | 56 | 205 | 0.0 | 0.0 | 0.01 | 0.03 | 0.03 | 88 | 1007.2 |
| 20260507180004 | 56 | 205 | 0.0 | 7.0 | 0.02 | 0.03 | 0.03 | 85 | 1007.3 |
| 20260507174504 | 57 | 209 | 5.0 | 10.0 | 0.02 | 0.03 | 0.03 | 81 | 1007.1 |
| 20260507173005 | 58 | 122 | 4.0 | 7.0 | 0.01 | 0.02 | 0.02 | 80 | 1007.5 |
| 20260507171504 | 59 | 229 | 0.0 | 0.0 | 0.01 | 0.02 | 0.02 | 78 | 1007.5 |
| 20260507170005 | 60 | 229 | 0.0 | 0.0 | 0.00 | 0.01 | 0.01 | 75 | 1007.3 |
| 20260507164504 | 60 | 229 | 0.0 | 3.0 | 0.00 | 0.01 | 0.01 | 74 | 1007.1 |
| 20260507163005 | 60 | 329 | 2.0 | 3.0 | 0.00 | 0.01 | 0.01 | 71 | 1006.9 |
| 20260507161504 | 60 | 64 | 0.0 | 3.0 | 0.00 | 0.01 | 0.01 | 71 | 1006.7 |
| 20260507160004 | 60 | 44 | 2.0 | 7.0 | 0.00 | 0.01 | 0.01 | 69 | 1006.6 |
| 20260507154504 | 61 | 68 | 1.0 | 6.0 | 0.01 | 0.01 | 0.01 | 68 | 1006.6 |
| 20260507153005 | 60 | 84 | 1.0 | 6.0 | 0.01 | 0.01 | 0.01 | 69 | 1006.7 |
| 20260507151504 | 60 | 38 | 5.0 | 12.0 | 0.01 | 0.01 | 0.01 | 71 | 1006.6 |
| 20260507150006 | 60 | 35 | 2.0 | 12.0 | 0.01 | 0.01 | 0.01 | 74 | 1006.3 |
| 20260507144504 | 60 | 45 | 5.0 | 10.0 | 0.00 | 0.00 | 0.00 | 70 | 1006.7 |
| 20260507143005 | 61 | 312 | 2.0 | 3.0 | 0.00 | 0.00 | 0.00 | 66 | 1007.2 |
| 20260507141504 | 61 | 76 | 1.0 | 12.0 | 0.00 | 0.00 | 0.00 | 66 | 1006.8 |
| 20260507140004 | 63 | 67 | 6.0 | 12.0 | 0.00 | 0.00 | 0.00 | 65 | 1006.5 |
| 20260507134504 | 63 | 63 | 6.0 | 14.0 | 0.00 | 0.01 | 0.00 | 67 | 1006.6 |
| 20260507133005 | 62 | 43 | 6.0 | 14.0 | 0.00 | 0.03 | 0.00 | 69 | 1006.7 |
| 20260507131504 | 61 | 68 | 3.0 | 9.0 | 0.00 | 0.03 | 0.00 | 69 | 1007.2 |
| 20260507130004 | 62 | 45 | 5.0 | 9.0 | 0.00 | 0.03 | 0.00 | 68 | 1007.2 |
| 20260507124504 | 62 | 123 | 3.0 | 12.0 | 0.00 | 0.03 | 0.00 | 70 | 1007.3 |
| 20260507123005 | 61 | 98 | 3.0 | 12.0 | 0.00 | 0.03 | 0.00 | 71 | 1007.3 |
| 20260507121504 | 60 | 49 | 6.0 | 10.0 | 0.00 | 0.03 | 0.00 | 70 | 1007.4 |
| 20260507120005 | 60 | 355 | 1.0 | 7.0 | 0.00 | 0.03 | 0.00 | 66 | 1007.9 |
| 20260507114504 | 60 | 356 | 5.0 | 8.0 | 0.00 | 0.03 | 0.00 | 66 | 1008.2 |
| 20260507113006 | 60 | 329 | 2.0 | 6.0 | 0.00 | 0.03 | 0.00 | 71 | 1008.2 |
| 20260507111504 | 59 | 47 | 5.0 | 9.0 | 0.00 | 0.03 | 0.00 | 73 | 1008.1 |
| 20260507110004 | 60 | 62 | 3.0 | 7.0 | 0.00 | 0.03 | 0.00 | 87 | 1008.2 |
| 20260507104504 | 59 | 125 | 2.0 | 8.0 | 0.00 | 0.03 | 0.00 | 100 | 1008.3 |
| 20260507103004 | 60 | 338 | 2.0 | 7.0 | 0.00 | 0.03 | 0.00 | 100 | 1008.6 |
| 20260507101504 | 61 | 321 | 3.0 | 7.0 | 0.00 | 0.03 | 0.00 | 100 | 1008.7 |
| 20260507100004 | 60 | 296 | 2.0 | 5.0 | 0.00 | 0.03 | 0.00 | 100 | 1008.8 |
| 20260507094504 | 59 | 5 | 1.0 | 7.0 | 0.00 | 0.03 | 0.00 | 100 | 1008.8 |
| 20260507093005 | 59 | 314 | 2.0 | 6.0 | 0.00 | 0.03 | 0.00 | 100 | 1008.9 |
| 20260507091504 | 58 | 295 | 0.0 | 3.0 | 0.00 | 0.03 | 0.00 | 100 | 1009.0 |
| 20260507090005 | 57 | 315 | 2.0 | 3.0 | 0.00 | 0.03 | 0.00 | 100 | 1008.8 |
| 20260507084504 | 58 | 305 | 1.0 | 3.0 | 0.00 | 0.03 | 0.00 | 100 | 1008.9 |
| 20260507083005 | 57 | 250 | 0.0 | 3.0 | 0.00 | 0.03 | 0.00 | 100 | 1009.1 |
| 20260507081504 | 56 | 206 | 0.0 | 0.0 | 0.00 | 0.03 | 0.00 | 100 | 1009.1 |
| 20260507080004 | 55 | 205 | 0.0 | 0.0 | 0.00 | 0.03 | 0.00 | 100 | 1009.3 |
| 20260507074504 | 53 | 211 | 0.0 | 0.0 | 0.00 | 0.03 | 0.00 | 100 | 1009.4 |
| 20260507073004 | 53 | 211 | 0.0 | 0.0 | 0.00 | 0.03 | 0.00 | 100 | 1009.5 |
| 20260507071504 | 52 | 211 | 0.0 | 0.0 | 0.00 | 0.03 | 0.00 | 100 | 1009.5 |
| 20260507070009 | 51 | 211 | 0.0 | 0.0 | 0.00 | 0.03 | 0.00 | 100 | 1009.6 |
| 20260507064504 | 51 | 211 | 0.0 | 0.0 | 0.00 | 0.03 | 0.00 | 100 | 1009.5 |
| 20260507063005 | 50 | 211 | 0.0 | 0.0 | 0.00 | 0.03 | 0.00 | 100 | 1009.5 |
| 20260507061504 | 50 | 211 | 0.0 | 0.0 | 0.00 | 0.03 | 0.00 | 100 | 1009.4 |